Weather Roundup
Issued by NWS Chicago, IL

Home | Current Version | Previous Version | Graphics & Text | Print | Product List | Glossary On
Versions: 1 2 3 4 5 6 7 8 9 10 11 12 13 14 15 16 17 18 19 20 21 22 23 24 25 26 27 28 29 30 31 32 33 34 35 36 37 38 39 40 41 42 43 44 45 46 47 48 49 50
000
NZUS59 KLOT 230303
HRRLOT

CHICAGO AREA WEATHER ROUNDUP
NATIONAL WEATHER SERVICE CHICAGO/ROMEOVILLE IL
1000 PM CDT TUE AUG 22 2017

NOTE: "FAIR" INDICATES FEW OR NO CLOUDS BELOW 12,000 FEET WITH NO
SIGNIFICANT WEATHER AND/OR OBSTRUCTIONS TO VISIBILITY.

* THESE STATIONS ARE NOT UNDER NWS QUALITY CONTROL. THEY ALSO MAY NOT
  REPORT WEATHER SUCH AS PRECIPITATION OR FOG.

ILZ005-006-012>014-019>023-230400-
NORTHEAST ILLINOIS

CITY           SKY/WX    TMP DP  RH WIND       PRES   REMARKS
OHARE          PTCLDY    68  50  52 NW8       29.99R
MIDWAY         CLEAR     71  50  47 NW12      29.98R
AURORA         CLEAR     57  55  93 NW6       30.02R
LANSING*       PTCLDY    68  50  52 NW6       29.99R
JOLIET*        CLEAR     66  56  70 CALM      30.00R
WAUKEGAN       CLEAR     64  52  64 CALM      29.98R
DUPAGE AIRPORT CLEAR     63  54  72 NW6       30.00R
WHEELING       CLEAR     67  52  58 NW7       30.00R
MORRIS*        CLEAR     59  56  89 NW6       30.00R
NORTHERLY ISL    N/A     72  50  45 W5          N/A
$$

WIZ051-052-058>065-066-070>072-230400-
SOUTHEAST WISCONSIN

CITY           SKY/WX    TMP DP  RH WIND       PRES   REMARKS
MILWAUKEE      PTCLDY    69  50  50 W7        29.96S
KENOSHA*       CLEAR     60  52  74 W6        29.98R
RACINE*        CLEAR     63  52  67 W5        29.98S
$$

INZ001>003-010>013-019-020-230400-
NORTHWEST INDIANA

CITY           SKY/WX    TMP DP  RH WIND       PRES   REMARKS
GARY*          PTCLDY    72  48  43 NW8       29.98R
MICHIGAN CITY* NOT AVBL
RENSSELAER*    NOT AVBL
VALPARAISO     PTCLDY    68  55  63 N5        29.98R
$$

LMZ740>746-230400-
SOUTHERN LAKE MICHIGAN

STATION/POSITION TIME  SKY/WX   TEMP WIND        PRES    VSBY
                                AIR  DIR/SP/G
                 (UTC)          (F)  (DEG/KT/KT) (MB)    (MI)
HARRISON CRIB    0240            73  320/ 15/ 16   N/A
BURNHAM HARBOR   NOT AVBL
CALUMET HARBOR   0230            71  300/  5/  8 1014.6R
BURNS HARBOR     0240            73  340/ 16/ 21 1015.2R
MICHIGAN CITY    0240            72  350/ 17/ 18   N/A
$$

ABBREVIATIONS USED IN REMARKS
   TC - TEMPERATURE IN CELSIUS
  WCI - WIND CHILL INDEX
   HX - HEAT INDEX
  VSB - VISIBILITY
$$




USA.gov is the U.S. government's official web portal to all federal, state and local government web resources and services.